Location: Acton
(51.4942°N, 0.2232°W)
Time: 12:14:35
(UTC+00:00)

Lacrosse 5 rocket - Pass Details

Date: 18 September 2020
Orbit: 460 x 635 km, 57.0° (Epoch: 23 October)

Event Time Altitude Azimuth Distance (km) Brightness Sun altitude
Rises 21:24:51 0° 290° (WNW) 2,821 5.9 -28.3°
Reaches altitude 10° 21:27:10 10° 297° (WNW) 1,945 4.9 -28.6°
Enters shadow 21:30:47 41° 345° (NNW) 903 2.7 -29.0°
